395  
ASUS44 KMOB 202112  
RWRMOB  
REGIONAL WEATHER ROUNDUP  
NATIONAL WEATHER SERVICE MOBILE AL  
300 PM CST SUN JAN 20 2019  
 
NOTE: "FAIR" INDICATES FEW OR NO CLOUDS BELOW 12,000 FEET WITH NO  
SIGNIFICANT WEATHER AND/OR S TO VISIBILITY
.  
 
* THESE STATIONS ARE PART OF THE UNIVERSITY OF SOUTH ALABAMA  
MESONET AND ARE NOT UNDER NWS OR FAA QUALITY CONTROL.
 
 
ALZ061>064-202200-  
COASTAL ALABAMA  
 
CITY SKY/WX TMP DP RH WIND PRES REMARKS
 
MOBILE REG APT FAIR 46 29 51 N14G23 30.17F  
BROOKLEY FIELD FAIR 49 29 46 NW16 30.19R  
USA CAMPUS* NOT AVBL  
DOG RIVER* NOT AVBL  
 
 
CITY SKY/WX TMP DP RH WIND PRES REMARKS
 
GULF SHORES FAIR 44 -17 7 NW14G23 30.18R  
 

 
 
ALZ051>060-202200-  
INTERIOR SOUTHWEST AND SOUTH CENTRAL ALABAMA  
 
CITY SKY/WX TMP DP RH WIND PRES REMARKS
 
GREENVILLE LGT RAIN 42 24 49 N15G23 30.14S  
EVERGREEN FAIR 45 27 49 N12G21 30.17R  
ATMORE* N/A 45 28 53 N18 30.92F  
ANDALUSIA/OPP FAIR 46 27 47 NW13G22 30.13S  
ANDALUSIA* N/A 41 28 60 NW12 30.13R  
FLORALA APT FAIR 43 27 53 NW8 30.16R  
FLORALA* NOT AVBL  
 

 
 
FLZ001>006-202200-  
WESTERN FLORIDA PANHANDLE  
 
CITY SKY/WX TMP DP RH WIND PRES REMARKS
 
PENSACOLA FAIR 45 30 55 NW16G26 30.16R  
NAS PENSACOLA FAIR 46 31 55 NW13G22 30.16R  
MILTON NOT AVBL  
WHTNG S FIELD FAIR 44 28 53 N16G24 30.16R  
 
 
CITY SKY/WX TMP DP RH WIND PRES REMARKS
 
JAY* NOT AVBL  
DUKE FIELD FAIR 43 28 54 N14G24 30.12R  
CRESTVIEW FAIR 44 28 53 N12 30.15R  
VALPARAISO FAIR 46 29 53 N17 30.12R  
DESTIN FAIR 45 31 58 N16 30.13R  
 

 
 
MSZ076-079-202200-  
INTERIOR SOUTHEAST MISSISSIPPI  
 
CITY SKY/WX TMP DP RH WIND PRES REMARKS
 
LEAKESVILLE* NOT AVBL  
AGRICOLA* N/A 45 28 53 NW14 30.20S  
 

 
 
MARINE OBSERVATIONS  
 
STATION/POSITION TIME TEMP WIND PRES WAVE
 
AIR SEA DIR/SP/G HT/PER  
(UTC) (F) (DEG/KT/KT) (MB) (FT/S)  
PETIT BOIS ISLND 2048 44 350/ 16/ 19 1023.5R  
KATRINA CUT 2000 43 350/ 15 1022.4  
CEDAR POINT 2030 45 320/ 14 1022.4R  
E DAUPHIN ISLAND 2100 45 350/ 15/ 18 1022.1R  
MIDDLE BAY LIGHT 2000 43 320/ 17 1021.0  
STATE DOCKS 2042 47 52 1022.3R  
MEAHER PARK 2030 44 350/ 10 1022.7R  
WEEKS BAY 1845 41 1022.0  
FORT MORGAN 2048 44 360/ 18/ 20 1022.0R  
12 S ORANGE BCH 2050 45 330/ 16/ 21 1022.1R 3/ 8  
PENSACOLA BAY 2048 44 57 330/ 6/ 12 1021.4R  
64 S DAUPHIN ISL 2050 330/ 16/ 21 1023.0R 6/ 6  
 

 
 
SELECTED LOCATIONS ACROSS THE REGION  
 
CITY SKY/WX TMP DP RH WIND PRES REMARKS
 
NEW ORLEANS FAIR 50 32 50 NW13 30.25S  
GULFPORT FAIR 49 29 46 NW14G23 30.20S  
PASCAGOULA AP FAIR 50 29 44 N12 30.18F  
PASCAGOULA* NOT AVBL  
HATTIESBURG FAIR 45 26 47 N10 30.25R  
LAUREL FAIR 45 28 51 N14 30.24S  
MERIDIAN FAIR 45 24 43 NW8 30.24R  
JACKSON FAIR 42 22 44 NW12 30.27S  
MONTGOMERY CLOUDY 40 28 62 NW16 30.18R  
TROY PTSUNNY 40 27 59 NW14G22 30.14R  
ASHFORD* N/A 41 28 60 NW12 30.13R  
DOTHAN FAIR 44 28 53 NW20 30.12R  
PANAMA CITY FAIR 45 32 60 NW13 30.09S  
 

 
 
 
 
CLICK HERE TO GO TO PREVIOUS BULLETINS.

The Nexlab AL Page
The Nexlab FL Page
The Nexlab MS Page Main Text Page